Regional Weather Roundup
Issued by NWS

Home | Current Version | Previous Version | Graphics & Text | Print | Product List | Glossary On
Versions: 1 2 3 4 5 6 7 8 9 10 11 12 13 14 15 16 17 18 19 20 21 22 23 24 25 26 27 28 29 30 31 32 33 34 35 36 37 38 39 40 41 42 43 44 45 46 47 48 49 50
000
ASUS43 KOAX 241902
RWRNE

WEATHER ROUNDUP FOR NEBRASKA
NATIONAL WEATHER SERVICE OMAHA NE
100 PM CST SAT JAN 24 2015

NOTES: SATELLITE DATA IS BEING USED TO AUGMENT CLOUD COVER ABOVE
       12000 FEET.
       "FAIR" INDICATES FEW OR NO CLOUDS BELOW 12,000 FEET WITH NO
       SIGNIFICANT WEATHER AND/OR OBSTRUCTIONS TO VISIBILITY.

  * THESE STATIONS DO NOT REPORT WEATHER SUCH AS RAIN...SNOW OR FOG.

NEZ001>004-019>022-054>056-242000-
NEBRASKA PANHANDLE

CITY           SKY/WX    TMP DP  RH WIND       PRES   REMARKS
SCOTTSBLUFF    CLOUDY    43  26  51 W17G30    29.94F
ALLIANCE       CLOUDY    40  28  62 W20       29.89F WCI  30
CHADRON        PTSUNNY   44  30  57 W12       29.89F
SIDNEY         CLOUDY    49  21  33 NW23G29   29.94F
$$

NEZ057>060-069>072-079>082-242000-
SOUTHWEST NEBRASKA

CITY           SKY/WX    TMP DP  RH WIND       PRES   REMARKS
NORTH PLATTE   PTSUNNY   50  25  37 W15       29.86F
IMPERIAL       CLOUDY    52  21  29 W16G25    29.91F
LEXINGTON      PTSUNNY   54  25  32 W17       29.84F
MCCOOK         CLOUDY    50  26  39 W14G21    29.90F
$$

NEZ005>010-023>029-035>040-094-242000-
NORTH CENTRAL NEBRASKA

CITY           SKY/WX    TMP DP  RH WIND       PRES   REMARKS
VALENTINE      LGT RAIN  46  29  51 W17       29.78F
AINSWORTH      CLOUDY    46  28  49 W15G21    29.77F
BROKEN BOW     PTSUNNY   51  28  41 W12       29.80F
ORD            PTSUNNY   49  27  42 W10       29.77F
$$

NEZ041-046>049-061>064-073>077-083>087-242000-
SOUTH CENTRAL NEBRASKA

CITY           SKY/WX    TMP DP  RH WIND       PRES   REMARKS
GRAND ISLAND   CLOUDY    50  28  42 W17       29.80F
AURORA         CLOUDY    49  28  42 W16G23    29.79F
HASTINGS       CLOUDY    49  25  39 W16       29.81F
KEARNEY *      CLOUDY    50  27  40 W17G23    29.82F
$$

NEZ011>018-030>034-042>045-242000-
NORTHEAST NEBRASKA

CITY           SKY/WX    TMP DP  RH WIND       PRES   REMARKS
NORFOLK        CLOUDY    50  30  46 W15       29.71F
ALBION         CLOUDY    51  28  41 W10       29.76F
BLAIR          PTSUNNY   49  31  49 SW10      29.74F
COLUMBUS *     CLOUDY    45  30  57 W12       29.78F
FREMONT        CLOUDY    49  31  49 SW3       29.75F
TEKAMAH        CLOUDY    49  34  56 SW14      29.74F
$$

NEZ050>053-065>068-078-088>093-242000-
SOUTHEAST NEBRASKA

CITY           SKY/WX    TMP DP  RH WIND       PRES   REMARKS
LINCOLN        CLOUDY    51  30  44 W10       29.79F
OMAHA EPPLEY   PTSUNNY   50  31  48 SW8       29.76F
FALLS CITY     SUNNY     57  29  34 W17       29.81F
$$

NEZ044-045-051>053-067-242000-
OMAHA AREA

CITY           SKY/WX    TMP DP  RH WIND       PRES   REMARKS
OMAHA EPPLEY   PTSUNNY   50  31  48 SW8       29.76F
BLAIR          PTSUNNY   49  31  49 SW10      29.74F
FREMONT        CLOUDY    49  31  49 SW3       29.75F
OFFUTT AFB     PTSUNNY   49  31  49 SW9       29.76F
$$


USA.gov is the U.S. government's official web portal to all federal, state and local government web resources and services.